EW4570 Weather Reports


time (UTC)temp
C
wind
direction
speed
KPH
gust
KPH
rain 1hr
cm
rain 24hr
cm
rain mn
cm
humidity
%
barometer
mb
20260506123100 18 244 1.6 16.1 0.00 0.00 0.00 71 1008.8
20260506121601 18 219 6.4 22.5 0.00 0.00 0.00 71 1009.0
20260506120059 18 233 6.4 22.5 0.00 0.00 0.00 72 1009.2
20260506114559 18 223 6.4 32.2 0.00 0.03 0.00 73 1009.3
20260506113057 18 240 8.0 22.5 0.00 0.03 0.00 74 1009.2
20260506111555 18 201 6.4 19.3 0.00 0.03 0.00 74 1009.2
20260506104556 18 246 4.8 17.7 0.00 0.03 0.00 75 1009.1
20260506103051 18 228 1.6 17.7 0.00 0.03 0.00 75 1009.2
20260506101550 18 214 4.8 17.7 0.00 0.03 0.00 76 1009.0
20260506100049 17 168 4.8 17.7 0.00 0.03 0.00 76 1008.8
20260506094609 17 203 8.0 17.7 0.00 0.03 0.00 76 1008.8
20260506093047 17 184 3.2 19.3 0.00 0.03 0.00 76 1008.8
20260506091548 18 212 4.8 16.1 0.00 0.03 0.00 75 1008.9
20260506090042 18 228 4.8 19.3 0.00 0.03 0.00 75 1009.0
20260506084543 18 219 3.2 24.1 0.00 0.03 0.00 74 1009.1
20260506083039 18 215 6.4 20.9 0.00 0.03 0.00 74 1009.1
20260506081536 18 250 6.4 14.5 0.00 0.03 0.00 73 1009.1
20260506073031 18 206 3.2 24.1 0.00 0.03 0.00 71 1009.1
20260506071532 19 216 3.2 20.9 0.00 0.03 0.00 70 1009.2
20260506061523 19 222 3.2 20.9 0.00 0.03 0.00 67 1009.3
20260506044510 20 208 3.2 17.7 0.00 0.03 0.00 62 1009.8
20260506043008 20 155 3.2 24.1 0.00 0.03 0.00 61 1009.9
20260506041512 21 170 4.8 27.4 0.00 0.03 0.00 60 1009.8
20260506040006 21 235 6.4 25.7 0.00 0.03 0.03 59 1009.6
20260506034503 21 199 6.4 24.1 0.00 0.03 0.03 58 1009.7
20260506033002 21 239 8.0 25.7 0.00 0.03 0.03 57 1009.7
20260506031503 21 144 4.8 24.1 0.00 0.03 0.03 57 1009.6
20260506030100 21 240 8.0 27.4 0.00 0.03 0.03 56 1009.6
20260506024603 22 237 9.7 20.9 0.00 0.03 0.03 55 1009.6
20260506023102 22 193 4.8 22.5 0.00 0.03 0.03 55 1009.7
20260506021558 22 161 8.0 20.9 0.00 0.03 0.03 54 1009.6
20260506020058 22 210 9.7 29.0 0.00 0.03 0.03 53 1009.4
20260506014657 22 234 8.0 29.0 0.00 0.03 0.03 51 1009.3
20260506013056 24 147 3.2 22.5 0.00 0.03 0.03 45 1009.2
20260506011556 24 194 9.7 29.0 0.00 0.03 0.03 42 1009.0
20260506011525 24 218 8.0 29.0 0.00 0.03 0.03 42 1009.0
20260506010054 25 249 9.7 25.7 0.00 0.03 0.03 41 1008.8
20260506004555 25 223 8.0 30.6 0.00 0.03 0.03 40 1008.5
20260506003053 25 218 4.8 22.5 0.00 0.03 0.03 39 1008.5
20260506001552 26 209 3.2 17.7 0.00 0.03 0.03 36 1008.4
20260506000053 26 219 6.4 19.3 0.00 0.03 0.03 35 1008.1
20260505234554 26 213 4.8 17.7 0.00 0.03 0.03 33 1008.2
20260505233051 26 223 4.8 27.4 0.00 0.03 0.03 33 1007.9
20260505231650 26 253 8.0 30.6 0.00 0.03 0.03 32 1007.8
20260505230057 27 219 8.0 25.7 0.00 0.03 0.03 30 1007.6
20260505224549 27 209 4.8 29.0 0.00 0.03 0.03 30 1007.3
20260505223048 27 213 6.4 27.4 0.00 0.03 0.03 29 1007.2
20260505221547 27 181 12.9 32.2 0.00 0.03 0.03 28 1007.1
20260505220047 27 227 12.9 29.0 0.00 0.03 0.03 29 1007.1
20260505214546 28 240 17.7 30.6 0.00 0.03 0.03 28 1007.0
20260505213053 28 252 17.7 33.8 0.00 0.03 0.03 29 1006.8
20260505211645 28 194 8.0 43.5 0.00 0.03 0.03 31 1006.7
20260505210043 28 258 11.3 29.0 0.00 0.03 0.03 29 1006.6
20260505204543 28 182 14.5 32.2 0.00 0.03 0.03 29 1006.8
20260505203041 28 278 12.9 33.8 0.00 0.03 0.03 30 1006.8
20260505201541 28 238 8.0 25.7 0.00 0.03 0.03 30 1007.0
20260505200043 28 211 11.3 30.6 0.00 0.03 0.03 30 1006.9
20260505194539 28 249 12.9 45.1 0.00 0.03 0.03 30 1007.2
20260505193036 28 186 9.7 35.4 0.00 0.03 0.03 32 1007.4
20260505191535 28 214 12.9 30.6 0.00 0.03 0.03 31 1007.7
20260505190037 28 218 12.9 41.8 0.00 0.03 0.03 31 1007.7
20260505184530 28 221 9.7 48.3 0.00 0.03 0.03 34 1008.1
20260505183035 28 215 8.0 32.2 0.00 0.03 0.03 35 1008.3
20260505181526 28 218 6.4 22.5 0.00 0.03 0.03 37 1008.3
20260505180042 27 213 4.8 22.5 0.00 0.03 0.03 37 1008.4
20260505174523 27 194 6.4 22.5 0.00 0.03 0.03 38 1008.4
20260505173020 27 134 8.0 27.4 0.00 0.03 0.03 39 1008.7
20260505171517 27 228 3.2 22.5 0.00 0.03 0.03 40 1008.8
20260505170013 26 286 6.4 22.5 0.00 0.03 0.03 41 1009.0
20260505164510 26 194 4.8 16.1 0.00 0.03 0.03 43 1009.2
20260505163009 26 191 4.8 14.5 0.00 0.03 0.03 44 1009.4
20260505161503 25 256 3.2 11.3 0.00 0.03 0.03 45 1009.6
20260505153053 23 338 1.6 16.1 0.00 0.03 0.03 50 1010.2
20260505151551 23 221 3.2 11.3 0.00 0.03 0.03 51 1010.4
20260505124517 17 211 4.8 12.9 0.00 0.03 0.03 73 1010.5